When you browse on this site, cookies collect data to enhance your experience and personalize the content and advertising you see.
Visit our Privacy Policy to learn more. By continuing to use the site, you agree to this use of cookies and data.
  • In Latvia
  • List of Countries
  • For 7 days
  • Water Temperature
  • Weather Map
  • Weather Widgets
  • user-avatar
    Login

    Hourly Weather Al-Jahra

    Today, 19 September, Thursday

    Time Temperature Precipitation Wind Pressure Humidity
    00:00 +39°C° 0 mm 8 mps 749 mmHg 15%
    01:00 +38°C° 0 mm 8 mps 749 mmHg 16%
    02:00 +38°C° 0 mm 8 mps 749 mmHg 16%
    03:00 +37°C° 0 mm 9 mps 749 mmHg 17%
    04:00 +37°C° 0 mm 9 mps 749 mmHg 16%
    05:00 +35°C° 0 mm 9 mps 750 mmHg 16%
    06:00 +35°C° 0 mm 9 mps 750 mmHg 15%
    07:00 +38°C° 0 mm 10 mps 750 mmHg 13%
    08:00 +40°C° 0 mm 10 mps 750 mmHg 11%
    09:00 +43°C° 0 mm 11 mps 751 mmHg 9%
    10:00 +45°C° 0 mm 10 mps 750 mmHg 9%
    11:00 +47°C° 0 mm 10 mps 750 mmHg 8%
    12:00 +49°C° 0 mm 10 mps 750 mmHg 8%
    13:00 +49°C° 0 mm 10 mps 749 mmHg 8%
    14:00 +50°C° 0 mm 10 mps 749 mmHg 8%
    15:00 +50°C° 0 mm 10 mps 748 mmHg 8%
    16:00 +49°C° 0 mm 9 mps 748 mmHg 8%
    17:00 +46°C° 0 mm 8 mps 749 mmHg 8%
    18:00 +44°C° 0 mm 7 mps 749 mmHg 9%
    19:00 +42°C° 0 mm 6 mps 749 mmHg 10%
    20:00 +40°C° 0 mm 6 mps 749 mmHg 11%
    21:00 +39°C° 0 mm 6 mps 749 mmHg 12%
    22:00 +38°C° 0 mm 6 mps 749 mmHg 13%
    23:00 +36°C° 0 mm 5 mps 749 mmHg 14%

    Tomorrow, 20 September, Friday

    Time Temperature Precipitation Wind Pressure Humidity
    00:00 +36°C° 0 mm 5 mps 749 mmHg 15%
    01:00 +35°C° 0 mm 5 mps 749 mmHg 17%
    02:00 +34°C° 0 mm 5 mps 749 mmHg 18%
    03:00 +33°C° 0 mm 5 mps 748 mmHg 20%
    04:00 +33°C° 0 mm 5 mps 748 mmHg 20%
    05:00 +32°C° 0 mm 5 mps 749 mmHg 20%
    06:00 +32°C° 0 mm 5 mps 749 mmHg 20%
    07:00 +35°C° 0 mm 6 mps 749 mmHg 17%
    08:00 +39°C° 0 mm 7 mps 749 mmHg 14%
    09:00 +41°C° 0 mm 8 mps 749 mmHg 11%
    10:00 +44°C° 0 mm 8 mps 749 mmHg 9%
    11:00 +45°C° 0 mm 8 mps 749 mmHg 8%
    12:00 +48°C° 0 mm 8 mps 748 mmHg 6%
    13:00 +49°C° 0 mm 7 mps 747 mmHg 6%
    14:00 +48°C° 0 mm 6 mps 747 mmHg 5%
    15:00 +49°C° 0 mm 6 mps 746 mmHg 4%
    16:00 +46°C° 0 mm 5 mps 746 mmHg 5%
    17:00 +43°C° 0 mm 4 mps 746 mmHg 5%
    18:00 +39°C° 0 mm 3 mps 746 mmHg 6%
    19:00 +38°C° 0 mm 3 mps 746 mmHg 8%
    20:00 +37°C° 0 mm 3 mps 747 mmHg 9%
    21:00 +35°C° 0 mm 2 mps 747 mmHg 11%
    22:00 +35°C° 0 mm 3 mps 747 mmHg 11%
    23:00 +35°C° 0 mm 4 mps 747 mmHg 11%

    Day after tomorrow, 21 September, Saturday

    Time Temperature Precipitation Wind Pressure Humidity
    00:00 +34°C° 0 mm 4 mps 747 mmHg 11%
    01:00 +34°C° 0 mm 4 mps 746 mmHg 11%
    02:00 +34°C° 0 mm 4 mps 746 mmHg 11%
    03:00 +33°C° 0 mm 4 mps 746 mmHg 11%
    04:00 +33°C° 0 mm 4 mps 746 mmHg 13%
    05:00 +33°C° 0 mm 4 mps 746 mmHg 15%
    06:00 +32°C° 0 mm 4 mps 746 mmHg 18%
    07:00 +35°C° 0 mm 3 mps 747 mmHg 16%
    08:00 +37°C° 0 mm 3 mps 747 mmHg 15%
    09:00 +39°C° 0 mm 3 mps 747 mmHg 13%
    10:00 +40°C° 0 mm 3 mps 747 mmHg 12%
    11:00 +43°C° 0 mm 3 mps 747 mmHg 10%
    12:00 +44°C° 0 mm 3 mps 747 mmHg 9%
    13:00 +44°C° 0 mm 4 mps 746 mmHg 10%
    14:00 +45°C° 0 mm 4 mps 746 mmHg 11%
    15:00 +45°C° 0 mm 4 mps 745 mmHg 12%
    16:00 +42°C° 0 mm 4 mps 745 mmHg 16%
    17:00 +39°C° 0 mm 3 mps 745 mmHg 21%
    18:00 +36°C° 0 mm 3 mps 745 mmHg 25%
    19:00 +35°C° 0 mm 3 mps 745 mmHg 26%
    20:00 +35°C° 0 mm 2 mps 746 mmHg 27%
    21:00 +34°C° 0 mm 2 mps 746 mmHg 29%
    22:00 +34°C° 0 mm 2 mps 746 mmHg 27%
    23:00 +34°C° 0 mm 2 mps 746 mmHg 26%

    22 September, Sunday

    Time Temperature Precipitation Wind Pressure Humidity
    00:00 +33°C° 0 mm 3 mps 746 mmHg 24%
    01:00 +34°C° 0 mm 3 mps 746 mmHg 23%
    02:00 +34°C° 0 mm 3 mps 746 mmHg 21%
    03:00 +34°C° 0 mm 3 mps 746 mmHg 19%
    04:00 +34°C° 0 mm 3 mps 746 mmHg 20%
    05:00 +33°C° 0 mm 3 mps 746 mmHg 20%
    06:00 +33°C° 0 mm 3 mps 746 mmHg 21%
    07:00 +35°C° 0 mm 3 mps 747 mmHg 19%
    08:00 +38°C° 0 mm 3 mps 747 mmHg 16%
    09:00 +41°C° 0 mm 4 mps 748 mmHg 14%
    10:00 +43°C° 0 mm 3 mps 748 mmHg 13%
    11:00 +45°C° 0 mm 3 mps 747 mmHg 11%
    12:00 +47°C° 0 mm 2 mps 747 mmHg 10%
    13:00 +47°C° 0 mm 3 mps 747 mmHg 10%
    14:00 +48°C° 0 mm 3 mps 746 mmHg 9%
    15:00 +48°C° 0 mm 3 mps 746 mmHg 9%
    16:00 +46°C° 0 mm 3 mps 746 mmHg 12%
    17:00 +43°C° 0 mm 4 mps 746 mmHg 14%
    18:00 +41°C° 0 mm 4 mps 746 mmHg 17%
    19:00 +40°C° 0 mm 4 mps 746 mmHg 18%
    20:00 +38°C° 0 mm 3 mps 747 mmHg 20%
    21:00 +36°C° 0 mm 3 mps 747 mmHg 21%
    22:00 +36°C° 0 mm 3 mps 747 mmHg 20%
    23:00 +36°C° 0 mm 3 mps 747 mmHg 19%

    23 September, Monday

    Time Temperature Precipitation Wind Pressure Humidity
    00:00 +36°C° 0 mm 2 mps 747 mmHg 18%
    01:00 +35°C° 0 mm 2 mps 747 mmHg 18%
    02:00 +35°C° 0 mm 2 mps 747 mmHg 18%
    03:00 +35°C° 0 mm 2 mps 747 mmHg 18%
    04:00 +34°C° 0 mm 3 mps 747 mmHg 19%
    05:00 +34°C° 0 mm 3 mps 748 mmHg 19%
    06:00 +34°C° 0 mm 3 mps 748 mmHg 19%
    07:00 +36°C° 0 mm 2 mps 748 mmHg 17%
    08:00 +39°C° 0 mm 2 mps 749 mmHg 15%
    09:00 +42°C° 0 mm 1 mps 749 mmHg 13%
    10:00 +43°C° 0 mm 2 mps 749 mmHg 12%
    11:00 +45°C° 0 mm 2 mps 748 mmHg 11%
    12:00 +47°C° 0 mm 3 mps 748 mmHg 10%
    13:00 +47°C° 0 mm 3 mps 748 mmHg 10%
    14:00 +47°C° 0 mm 3 mps 747 mmHg 10%
    15:00 +48°C° 0 mm 3 mps 747 mmHg 10%
    16:00 +45°C° 0 mm 3 mps 747 mmHg 12%
    17:00 +43°C° 0 mm 3 mps 746 mmHg 15%
    18:00 +39°C° 0 mm 3 mps 746 mmHg 17%
    19:00 +38°C° 0 mm 2 mps 747 mmHg 19%
    20:00 +37°C° 0 mm 2 mps 747 mmHg 20%
    21:00 +35°C° 0 mm 1 mps 748 mmHg 22%
    22:00 +34°C° 0 mm 1 mps 747 mmHg 22%
    23:00 +33°C° 0 mm 1 mps 747 mmHg 22%

    24 September, Tuesday

    Time Temperature Precipitation Wind Pressure Humidity
    00:00 +33°C° 0 mm 1 mps 747 mmHg 22%
    01:00 +33°C° 0 mm 1 mps 747 mmHg 21%
    02:00 +34°C° 0 mm 2 mps 747 mmHg 20%
    03:00 +35°C° 0 mm 3 mps 747 mmHg 19%
    04:00 +34°C° 0 mm 3 mps 747 mmHg 19%
    05:00 +34°C° 0 mm 3 mps 747 mmHg 19%
    06:00 +34°C° 0 mm 3 mps 748 mmHg 18%
    07:00 +37°C° 0 mm 3 mps 748 mmHg 16%
    08:00 +41°C° 0 mm 4 mps 749 mmHg 13%
    09:00 +44°C° 0 mm 4 mps 749 mmHg 11%
    10:00 +45°C° 0 mm 3 mps 749 mmHg 10%
    11:00 +46°C° 0 mm 3 mps 749 mmHg 9%
    12:00 +48°C° 0 mm 2 mps 748 mmHg 9%
    13:00 +48°C° 0 mm 3 mps 748 mmHg 9%
    14:00 +48°C° 0 mm 3 mps 747 mmHg 9%
    15:00 +49°C° 0 mm 4 mps 747 mmHg 9%
    16:00 +45°C° 0 mm 3 mps 747 mmHg 12%
    17:00 +43°C° 0 mm 3 mps 747 mmHg 15%
    18:00 +39°C° 0 mm 2 mps 747 mmHg 18%
    19:00 +38°C° 0 mm 2 mps 747 mmHg 19%
    20:00 +36°C° 0 mm 2 mps 747 mmHg 21%
    21:00 +35°C° 0 mm 2 mps 748 mmHg 23%
    22:00 +35°C° 0 mm 2 mps 748 mmHg 22%
    23:00 +35°C° 0 mm 2 mps 747 mmHg 21%
    Show more